Simultaneous Nadir Overpasses (SNOs) Predictions

Prediction of SNOs between NPP and PACE Satellite Orbit:

Table of predicted SNOs for the next 14.0 days since TLE Epoch: 5/11/2024
Index Date (NPP) Time (NPP) Lat,Lon (NPP) SZA (NPP ) Date (PACE) Time (PACE) Lat,Lon (PACE) SZA (PACE ) Distance(km) Time Diff (sec)
1 05/11/2024 12:19:19 -80.02, 136.36 115.88 05/11/2024 12:20:14 -80.01, 136.38 115.91 0.74 55
2 05/11/2024 13:09:59 79.87, -54.84 63.83 05/11/2024 13:09:20 79.87, -54.77 63.84 1.31 39
3 05/13/2024 16:45:43 -80.02, 69.73 116.41 05/13/2024 16:46:32 -80.02, 69.74 116.44 0.30 49
4 05/13/2024 17:36:22 79.84,-121.19 63.25 05/13/2024 17:35:37 79.84,-121.16 63.27 0.69 45
5 05/15/2024 21:12:07 -80.03, 3.02 116.90 05/15/2024 21:12:49 -80.02, 3.15 116.94 2.80 42
6 05/15/2024 22:02:46 79.85, 172.08 62.76 05/15/2024 22:01:54 79.85, 172.23 62.77 2.95 52
7 05/18/2024 01:38:30 -80.02, -63.48 117.40 05/18/2024 01:39:05 -80.02, -63.38 117.43 1.86 35
8 05/18/2024 02:29:08 79.81, 105.86 62.21 05/18/2024 02:28:09 79.81, 105.94 62.22 1.73 59
9 05/20/2024 06:04:50 -79.93,-129.17 118.03 05/20/2024 06:05:18 -79.94,-129.30 118.02 2.68 28
10 05/20/2024 06:55:28 79.72, 40.12 61.59 05/20/2024 06:54:22 79.73, 39.97 61.64 3.01 66
11 05/22/2024 10:31:15 -79.99, 163.57 118.33 05/22/2024 10:31:34 -79.99, 163.69 118.36 2.23 19
12 05/22/2024 11:21:05 78.06, -15.22 58.61 05/22/2024 11:19:52 77.87, -16.28 58.57 32.45 73



Historial Predications of SNOs between NPP and PACE
